Regional Weather Roundup
Issued by NWS Upton, NY

Current Version | Previous Version | Graphics & Text | Print | Product List | Glossary Off
Versions: 1 2 3 4 5 6 7 8 9 10 11 12 13 14 15 16 17 18 19 20 21 22 23 24 25 26 27 28 29 30 31 32 33 34 35 36 37 38 39 40 41 42 43 44 45 46 47 48 49 50

000
ASUS41 KOKX 022204
RWROKX

REGIONAL WEATHER ROUNDUP
NATIONAL WEATHER SERVICE NEW YORK NY
600 PM EDT SUN AUG 02 2015

NOTE: "FAIR" INDICATES FEW OR NO CLOUDS BELOW 12,000 FEET WITH NO
SIGNIFICANT WEATHER AND/OR OBSTRUCTIONS TO VISIBILITY.

NYZ071-072-176-178-NJZ106-104-022300-
NEW YORK CITY METRO AREA


CITY           SKY/WX    TMP DP  RH WIND       PRES   REMARKS
CENTRAL PARK   SUNNY     83  59  44 VRB5      29.91S
LAGUARDIA APRT MOSUNNY   85  58  39 S14G22    29.87F
KENNEDY INTL   MOSUNNY   84  63  49 S15       29.90S
NEWARK/LIBERTY MOSUNNY   86  61  42 SE8G17    29.87S
BRNX BOT. GARD   N/A     84  59  42 S17       29.87F
TETERBORO      MOSUNNY   86  56  35 S13       29.86S
$$

NYZ177-179-078>081-022300-
LONG ISLAND NEW YORK

CITY           SKY/WX    TMP DP  RH WIND       PRES   REMARKS
FARMINGDALE    SUNNY     84  58  40 SW13      29.90S
ISLIP          MOSUNNY   83  57  41 S13       29.88F
SHIRLEY        SUNNY     83  60  45 S10       29.91S
WESTHAMPTON    SUNNY     81  65  58 S10       29.92S
MONTAUK POINT    N/A     80  66  62 S6        29.92F
$$

NYZ052-065-067-022300-
HUDSON VALLEY

CITY           SKY/WX    TMP DP  RH WIND       PRES   REMARKS
WHITE PLAINS   MOSUNNY   84  58  40 S7        29.88S
NEWBURGH       MOSUNNY   84  57  39 SW12G18   29.89F
MONTGOMERY     MOSUNNY   85  58  39 SW16      29.87F
POUGHKEEPSIE   SUNNY     87  53  31 VRB5      29.85F
ALBANY         MOSUNNY   86  56  35 S9        29.81F
$$

NJZ001-105-106-008-010-013-015-019>022-104-022300-
NEW JERSEY

CITY           SKY/WX    TMP DP  RH WIND       PRES   REMARKS
NEWARK/LIBERTY MOSUNNY   86  61  42 SE8G17    29.87S
TETERBORO      MOSUNNY   86  56  35 S13       29.86S
CALDWELL       SUNNY     87  51  28 SW8       29.87F
MORRISTOWN     SUNNY     90  46  22 W13G18    29.88S
SOMERVILLE     SUNNY     87  53  31 CALM      29.86F
SUSSEX         SUNNY     83  56  39 VRB6      29.89S
ANDOVER          N/A     82  57  42 SW9       29.90S
TRENTON        SUNNY     87  52  29 SW9       29.89S
MILLVILLE      MOSUNNY   89  56  32 NW9       29.90F
ATLANTIC CITY  MOSUNNY   85  63  47 S10       29.90F
WRIGHTSTOWN    NOT AVBL
TOMS RIVER       N/A     90  48  24 W10       29.89F
BELMAR         SUNNY     82  63  51 SE6       29.90S
$$

PAZ047>061-062-071-022300-
EASTERN PENNSYLVANIA

CITY           SKY/WX    TMP DP  RH WIND       PRES   REMARKS
PHILADELPHIA   MOSUNNY   89  52  28 SW10      29.90F
ALLENTOWN      SUNNY     85  58  39 SW10      29.89F
SCRANTON       SUNNY     82  58  43 S8        29.88F
$$

CTZ002-004>006-009-010-012-RIZ004-006-007-MAZ004-011-015-022300-
SOUTHERN NEW ENGLAND
 IN CT

CITY           SKY/WX    TMP DP  RH WIND       PRES   REMARKS
BRADLEY INTL   MOSUNNY   85  54  34 SW8       29.86F
HARTFORD       MOSUNNY   85  57  38 SW10G17   29.86F
DANBURY        SUNNY     82  57  42 S7        29.90S
WTRBRY/OXFORD  MOSUNNY   81  59  47 S9        29.93F
BRIDGEPORT     SUNNY     83  63  50 S8        29.88F
MERIDEN        SUNNY     86  56  35 S8G17     29.88F
NEW HAVEN      SUNNY     84  61  45 SE6       29.89F
CHESTER        NOT AVBL
GROTON         SUNNY     76  64  66 S6        29.89F
WILLIMANTIC    MOSUNNY   83  56  39 S13       29.89S

 IN RI

CITY           SKY/WX    TMP DP  RH WIND       PRES   REMARKS
PROVIDENCE     MOSUNNY   83  56  39 SW15G22   29.90S
BLOCK ISLAND     N/A     79  66  65 S10       29.93S
WESTERLY       SUNNY     79  64  60 S9        29.91F

 IN MA

CITY           SKY/WX    TMP DP  RH WIND       PRES   REMARKS
BOSTON         MOSUNNY   85  53  33 SW15      29.86S
WORCESTER      SUNNY     80  53  39 SW10      29.91F
WESTFIELD      SUNNY     84  55  36 S15       29.85F
PROVINCETOWN   SUNNY     79  59  50 SW14      29.88F
NANTUCKET      SUNNY     76  65  68 S8        29.92F
$$

ANZ330-335-338-340-345-350-353-355-022300-
COASTAL MARINE OBSERVATIONS


STATION/POSITION TIME  SKY/WX   TEMP    WIND        PRES    VSBY  WAVE
                                AIR SEA DIR/SP/G                  HT/PER
                 (UTC)          (F)     (DEG/KT/KT) (MB)    (MI)  (FT/S)
NY HARB ENTRANCE 2050            79 79  170/ 10/ 10 1012.4          2/ 8
4S FIRE IS       NOT AVBL
20S FIRE ISLAND  2050            78 78  190/  6/  6 1012.8          3/ 8
GREAT SOUTH BAY  2100            78 82  220/ 10/ 12   N/A
23SW MTP         2150            77 76  200/  8/ 10 1012.7          3/ 8
HUDSON CANYON    NOT AVBL
KINGS POINT      2100            81 72  200/ 12/ 13 1011.2
EXECUTION ROCKS  2100            81     200/  6/  8   N/A
CENTRAL LI SOUND NOT AVBL
EASTERN LI SOUND 2100            74 69  200/  4/  6   N/A
ROBBINS REEF     2100            77     180/ 15/ 17 1010.9
$$


>>>>>>>>>>>>>>>>>>>>>>>>>>>> KEY <<<<<<<<<<<<<<<<<<<<<<<<<<<
>                                                          <
>     SKY/WX - SKY CONDITION/PRESENT WEATHER               <
>     TMP    - TEMPERATURE IN FAHRENHEIT                   <
>     DP     - DEWPOINT IN FAHRENHEIT                      <
>     RH     - RELATIVE HUMIDITY IN PERCENT                <
>     WIND   - DIRECTION AND SPEED IN MPH                  <
>     PRES   - MEAN SEA LEVEL PRESSURE IN INCHES OF HG     <
>     WCI    - WIND CHILL INDEX                            <
>     VSB    - VISIBILITY IN MILES                         <
>     HX     - HEAT INDEX                                  <
>     TC     - TEMPERATURE IN CELSIUS                      <
>     VRB    - VARIABLE WIND DIRECTION                     <
>                                                          <
>>>>>>>>>>>>>>>>>>>>>>>>>>>> KEY <<<<<<<<<<<<<<<<<<<<<<<<<<<




USA.gov is the U.S. government's official web portal to all federal, state and local government web resources and services.